Weather History for Balmaceda, Chile

Change the Weather History Date:

Friday, April 26, 2013

  Actual Average Record
Temperature  
Mean Temperature 42 °F -  
Max Temperature 59 °F - - ()
Min Temperature 26 °F - - ()
Degree Days  
Heating Degree Days 22    
Moisture  
Dew Point 38 °F    
Average Humidity 76    
Maximum Humidity 100    
Minimum Humidity 50    
Precipitation  
Precipitation 0.00 in 0.11 in - ()
Sea Level Pressure  
Sea Level Pressure 29.98 in    
Wind  
Wind Speed 6 mph ()    
Max Wind Speed 16 mph    
Max Gust Speed -    
Visibility 4.6 miles    
Events Fog    
T = Trace of Precipitation, MM = Missing Value Source: Averaged Metar Reports

Daily Weather History Graph

Daily Weather History Graph

Search for Another Location

Airport:

Trip Planner

Search our weather history database for the weather conditions in past years. The results will help you decide how hot, cold, wet, or windy it might be!

Date:

Astronomy

Apr. 26, 2013 Rise Set
Actual Time 8:37 AM CLST 6:50 PM CLST
Civil Twilight 8:06 AM CLST 7:21 PM CLST
Nautical Twilight 7:31 AM CLST 7:56 PM CLST
Astronomical Twilight 6:56 AM CLST 8:31 PM CLST
Moon 7:28 PM CLST (4/26) 9:33 AM CLST (4/26)
Length of Visible Light 11h 15m
Length of Day
10h 13m
Full, 99% of the Moon is Illuminated
Apr 26
Full
May 2
Last Quarter
May 9
New
May 18
First Quarter
May 25
Full

Hourly Weather History & Observations

Time (CLST) Temp. Windchill Dew Point Humidity Pressure Visibility Wind Dir Wind Speed Gust Speed Precip Events Conditions
12:00 AM 42.8 °F 38.6 °F 37.4 °F 81% 30.01 in - West 6.9 mph - N/A   Clear
1:00 AM 42.8 °F 38.6 °F 37.4 °F 81% 30.01 in - WSW 6.9 mph - N/A   Clear
2:00 AM 41.0 °F 36.4 °F 37.4 °F 87% 30.01 in - WSW 6.9 mph - N/A   Clear
3:00 AM 36 °F - 33 °F 86% 30.10 in 31 mi 1.2 mph - -  
3:00 AM 35.6 °F - 33.8 °F 93% 30.01 in - Variable 1.2 mph - N/A   Clear
4:00 AM 33.8 °F - 32.0 °F 93% 30.01 in - Calm Calm - N/A   Clear
5:00 AM 30.2 °F - 28.4 °F 93% 30.01 in - Calm Calm - N/A   Clear
6:00 AM 28.4 °F - 26.6 °F 93% 30.01 in 0.7 mi Calm Calm - N/A Fog Light Freezing Fog
7:00 AM 30.2 °F 26.7 °F 28.4 °F 93% 29.98 in - Variable 3.5 mph - N/A   Clear
8:00 AM 30.2 °F 26.7 °F 30.2 °F 100% 29.98 in 1.1 mi SW 3.5 mph - N/A Fog Light Freezing Fog
9:00 AM 33 °F - 31 °F 89% 30.09 in 1 mi NNE 2.3 mph - -   Mist
9:00 AM 32.0 °F - 30.2 °F 93% 29.98 in 6.2 mi NNE 2.3 mph - N/A   Mostly Cloudy
10:00 AM 35.6 °F - 33.8 °F 93% 29.98 in 4.3 mi Calm Calm - N/A Fog Fog
11:00 AM 44.6 °F 40.2 °F 41.0 °F 87% 29.98 in 6.2 mi West 8.1 mph - N/A   Mostly Cloudy
12:00 PM 48.2 °F - 42.8 °F 82% 29.98 in 6.2 mi West 11.5 mph - N/A   Scattered Clouds
1:00 PM 51.8 °F - 42.8 °F 71% 29.95 in 6.2 mi West 10.4 mph - N/A   Partly Cloudy
2:00 PM 55.4 °F - 42.8 °F 63% 29.92 in - West 6.9 mph - N/A   Clear
3:00 PM 58 °F - 44 °F 50% 29.90 in 25 mi West 13.8 mph - -   Clear
3:00 PM 59.0 °F - 44.6 °F 59% 29.89 in - West 13.8 mph - N/A   Clear
4:00 PM 59.0 °F - 44.6 °F 59% 29.92 in 6.2 mi West 15.0 mph - N/A   Mostly Cloudy
5:00 PM 59.0 °F - 44.6 °F 59% 29.92 in 6.2 mi West 5.8 mph - N/A   Overcast
6:00 PM 57.2 °F - 42.8 °F 59% 29.92 in 6.2 mi West 10.4 mph - N/A   Mostly Cloudy
7:00 PM 57.2 °F - 41.0 °F 55% 29.92 in - WNW 9.2 mph - N/A   Clear
8:00 PM 53.6 °F - 42.8 °F 67% 29.95 in - West 8.1 mph - N/A   Clear
9:00 PM 53 °F - 42 °F 55% 29.98 in 31 mi WNW 12.7 mph - -  
9:00 PM 53.6 °F - 41.0 °F 62% 29.95 in - WNW 12.7 mph - N/A   Clear
10:00 PM 53.6 °F - 41.0 °F 62% 29.98 in - WNW 16.1 mph - N/A   Clear
11:00 PM 50.0 °F - 42.8 °F 76% 30.01 in - West 10.4 mph - N/A   Clear